Location: Unspecified
(0.0000°N, 0.0000°E)
Time: 00:08:17
(UTC+02:00)

Iridium 15 - Visible Passes

Search period start: 24 April 2014 00:00
Search period end: 04 May 2014 00:00
Orbit: 776 x 779 km, 86.4° (Epoch: 23 April)

Date Brightness Start Highest point End Pass type
(mag) Time Alt. Az. Time Alt. Az. Time Alt. Az.
24 Apr 6.0 20:58:55 10° S 21:04:03 60° E 21:09:10 10° N visible
25 Apr 6.9 20:26:16 10° SSE 20:30:36 27° E 20:34:55 10° NNE visible
25 Apr 8.7 22:07:46 10° SW 22:11:01 17° W 22:14:15 10° NW visible
26 Apr 7.5 21:32:48 10° SSW 21:37:34 37° W 21:42:19 10° NNW visible
27 Apr 6.1 20:58:54 10° S 21:04:07 84° W 21:09:19 10° N visible
28 Apr 6.4 20:25:44 10° SSE 20:30:40 43° E 20:35:34 10° NNE visible
29 Apr 8.4 21:33:35 10° SW 21:37:37 23° W 21:41:39 10° NW visible
30 Apr 6.9 20:59:08 10° SSW 21:04:11 51° W 21:09:12 10° NNW visible
01 May 6.0 20:25:32 10° S 20:30:43 72° E 20:35:53 10° N visible
02 May 9.6 07:22:35 10° ENE 07:23:43 11° E 07:24:52 10° ESE visible
02 May 9.0 21:35:03 10° WSW 21:37:41 14° W 21:40:18 10° WNW visible
03 May 8.0 20:59:40 10° SSW 21:04:14 31° W 21:08:47 10° NNW visible
